This is the latest recevied weather packets stored in our database for station/object OE9GTV. If no packets are shown the sender has not sent any weather packets the latest 10 day(s).
| Time | Temp. | Humidity | Pressure | Rain* | Wind** | Luminosity | Snow |
|---|---|---|---|---|---|---|---|
| 1777724474 | 24.44° C | 42% | 1016.8 hPa | 0 mm | - | 0 W/m² | - |
| 1777723873 | 23.89° C | 43% | 1017 hPa | 0 mm | - | 0 W/m² | - |
| 1777723273 | 23.89° C | 43% | 1017.3 hPa | 0 mm | - | 0 W/m² | - |
| 1777722673 | 23.33° C | 44% | 1017.4 hPa | 0 mm | - | 0 W/m² | - |
| 1777722073 | 23.33° C | 46% | 1017.6 hPa | 0 mm | - | 0 W/m² | - |
| 1777721473 | 22.78° C | 44% | 1017.7 hPa | 0 mm | - | 0 W/m² | - |
| 1777720873 | 22.78° C | 42% | 1017.9 hPa | 0 mm | - | 0 W/m² | - |
| 1777720273 | 22.22° C | 43% | 1018 hPa | 0 mm | - | 0 W/m² | - |
| 1777719673 | 22.22° C | 44% | 1018.2 hPa | 0 mm | - | 0 W/m² | - |
| 1777719073 | 22.22° C | 43% | 1018.3 hPa | 0 mm | - | 0 W/m² | - |
| 1777718473 | 22.22° C | 44% | 1018.4 hPa | 0 mm | - | 0 W/m² | - |
| 1777717873 | 21.67° C | 45% | 1018.6 hPa | 0 mm | - | 0 W/m² | - |
| 1777717273 | 21.67° C | 46% | 1018.7 hPa | 0 mm | - | 0 W/m² | - |
| 1777716673 | 21.67° C | 50% | 1018.9 hPa | 0 mm | - | 0 W/m² | - |
| 1777716073 | 21.67° C | 49% | 1019 hPa | 0 mm | - | 0 W/m² | - |
| 1777715472 | 21.11° C | 49% | 1019.1 hPa | 0 mm | - | 0 W/m² | - |
| 1777714873 | 21.11° C | 51% | 1019.3 hPa | 0 mm | - | 0 W/m² | - |
| 1777714272 | 20.56° C | 51% | 1019.3 hPa | 0 mm | - | 0 W/m² | - |
| 1777713672 | 20.56° C | 50% | 1019.4 hPa | 0 mm | - | 0 W/m² | - |
| 1777713072 | 20.56° C | 51% | 1019.5 hPa | 0 mm | - | 0 W/m² | - |
| 1777712472 | 20.56° C | 51% | 1019.6 hPa | 0 mm | - | 0 W/m² | - |
| 1777711872 | 20° C | 51% | 1019.7 hPa | 0 mm | - | 0 W/m² | - |
| 1777711272 | 20° C | 51% | 1019.7 hPa | 0 mm | - | 0 W/m² | - |
| 1777710672 | 18.89° C | 53% | 1019.8 hPa | 0 mm | - | 0 W/m² | - |
| 1777710072 | 18.89° C | 52% | 1019.9 hPa | 0 mm | - | 0 W/m² | - |
* Rain latest hour (hover to see other rain measurements)
** Current wind speed in m/s (hover to see current wind gust speed)